WetterOnline ( https://www.wetteronline.de )

Wetter aktuell St. Peter

Aktuelles Wetter: Freiburg/Flugplatz (236m)

6-stündlich | Neueste Meldungen
Ortszeit Temperatur Wetter
Di, 26.10. 20:00 9.8° C wolkig
Di, 26.10. 14:00 15.2° C bedeckt
Di, 26.10. 8:00 9.4° C bewölkt
Di, 26.10. 2:00 13.3° C leichter Regen
Mo, 25.10. 20:00 13.0° C leicht bewölkt
Mo, 25.10. 14:00 17.4° C wolkenlos
Mo, 25.10. 8:00 2.2° C bedeckt
Mo, 25.10. 2:00 2.7° C bewölkt
Ortszeit Temperatur Wetter
Di, 26.10. 23:00 9.2° C bewölkt
Di, 26.10. 22:50 9.2° C bewölkt
Di, 26.10. 22:40 9.6° C bewölkt
Di, 26.10. 22:30 9.3° C bewölkt
Di, 26.10. 22:20 9.3° C bewölkt
Di, 26.10. 22:10 8.8° C bewölkt
Di, 26.10. 22:00 8.0° C bewölkt
Di, 26.10. 21:30 8.6° C wolkig
Di, 26.10. 21:00 9.5° C wolkig
Di, 26.10. 20:30 10.0° C bewölkt
Di, 26.10. 20:00 9.8° C wolkig
Ortszeit Relative Feuchte Sichtweite
Di, 26.10. 20:00 89% 35 km
Di, 26.10. 14:00 63% 60 km
Di, 26.10. 8:00 93% 20 km
Di, 26.10. 2:00 73% 30 km
Mo, 25.10. 20:00 70% 45 km
Mo, 25.10. 14:00 53% 65 km
Mo, 25.10. 8:00 94% 18 km
Mo, 25.10. 2:00 94% 17 km
Ortszeit Relative Feuchte Sichtweite
Di, 26.10. 23:00 90% 35 km
Di, 26.10. 22:50 90% -
Di, 26.10. 22:40 89% -
Di, 26.10. 22:30 93% 35 km
Di, 26.10. 22:20 93% -
Di, 26.10. 22:10 95% -
Di, 26.10. 22:00 93% 30 km
Di, 26.10. 21:30 94% 17 km
Di, 26.10. 21:00 92% 28 km
Di, 26.10. 20:30 91% 29 km
Di, 26.10. 20:00 89% 35 km
Ortszeit Niederschlagsmenge Niederschlagsart
Di, 26.10. 20:00 0.1 l/m2 in 12 Std. Regen
Di, 26.10. 14:00 0.1 l/m2 in 6 Std. Regen
Di, 26.10. 8:00 0.1 l/m2 in 12 Std. Regen
Di, 26.10. 2:00 0.1 l/m2 in 6 Std. Regen
Mo, 25.10. 20:00 0.0 l/m2 in 12 Std. -
Mo, 25.10. 14:00 0.0 l/m2 in 6 Std. -
Mo, 25.10. 8:00 0.0 l/m2 in 12 Std. -
Mo, 25.10. 2:00 0.0 l/m2 in 6 Std. -
Ortszeit Niederschlagsmenge Niederschlagsart
Di, 26.10. 23:00 0.0 l/m2 in 1 Std. -
Di, 26.10. 22:50 keine Meldung -
Di, 26.10. 22:40 keine Meldung -
Di, 26.10. 22:30 0.0 l/m2 in 1 Std. -
Di, 26.10. 22:20 keine Meldung -
Di, 26.10. 22:10 keine Meldung -
Di, 26.10. 22:00 0.0 l/m2 in 1 Std. -
Di, 26.10. 21:30 0.0 l/m2 in 1 Std. -
Di, 26.10. 21:00 0.0 l/m2 in 1 Std. -
Di, 26.10. 20:30 0.0 l/m2 in 1 Std. -
Di, 26.10. 20:00 0.0 l/m2 in 1 Std. Regen
Ortszeit Stärke Spitze Richtung
km/h Bft. km/h Grad Sektor
Di, 26.10. 20:00 4 1 22 30° NO
Di, 26.10. 14:00 13 3 24 240° SW
Di, 26.10. 8:00 9 2 19 330° NW
Di, 26.10. 2:00 9 2 22 240° SW
Mo, 25.10. 20:00 13 3 20 180° S
Mo, 25.10. 14:00 9 2 19 220° SW
Mo, 25.10. 8:00 4 1 7 290° W
Mo, 25.10. 2:00 0 0 4 - -
Ortszeit Stärke Spitze Richtung
km/h Bft. km/h Grad Sektor
Di, 26.10. 23:00 2 1 7 230° SW
Di, 26.10. 22:50 2 1 - 230° SW
Di, 26.10. 22:40 4 1 - 70° O
Di, 26.10. 22:30 4 1 7 20° N
Di, 26.10. 22:20 4 1 - 20° N
Di, 26.10. 22:10 4 1 - 10° N
Di, 26.10. 22:00 4 1 4 350° N
Di, 26.10. 21:30 2 1 4 330° NW
Di, 26.10. 21:00 0 0 4 - -
Di, 26.10. 20:30 4 1 4 100° O
Di, 26.10. 20:00 4 1 7 30° NO
Ortszeit Untergrenze Bedeckung Gattung
total tief tief mittel hoch
Di, 26.10. 20:00 1500 m 8/8 2/8 - - -
Di, 26.10. 14:00 2100 m 8/8 8/8 - - -
Di, 26.10. 8:00 1500 m 7/8 7/8 - - -
Di, 26.10. 2:00 1320 m 8/8 6/8 - - -
Mo, 25.10. 20:00 1800 m 4/8 4/8 - - -
Mo, 25.10. 14:00 - 0/8 0/8 - - -
Mo, 25.10. 8:00 4500 m 8/8 8/8 - - -
Mo, 25.10. 2:00 6900 m 8/8 5/8 - - -
Ortszeit Bedeckungsgrad in Achtel und Wolkenuntergrenze
Di, 26.10. 23:00 7(1170m) 7(9000m)
Di, 26.10. 22:50 7(1170m) 7(9000m)
Di, 26.10. 22:40 7(1110m) 7(9000m)
Di, 26.10. 22:30 7(960m) 8(10500m)
Di, 26.10. 22:20 7(960m) 8(10500m)
Di, 26.10. 22:10 7(960m) 7(10500m) 8(10500m)
Di, 26.10. 22:00 5(930m) 8(9000m)
Di, 26.10. 21:30 8(9000m)
Di, 26.10. 21:00 1(1080m) 8(9000m)
Di, 26.10. 20:30 4(1260m) 6(1500m) 8(9000m)
Di, 26.10. 20:00 2(1500m) 8(9000m) 8(9000m)
Ortszeit Luftdruck NN (hPa) Tendenz (hPa in 3 Std.)
Di, 26.10. 20:00 1027 + 1,6
Di, 26.10. 14:00 1024 - 0,3
Di, 26.10. 8:00 1024 + 0,7
Di, 26.10. 2:00 1022 + 0,5
Mo, 25.10. 20:00 1021 + 0,8
Mo, 25.10. 14:00 1021 - 1,4
Mo, 25.10. 8:00 1023 - 0,6
Mo, 25.10. 2:00 1024 - 0,3
Ortszeit Luftdruck NN (hPa) Tendenz (hPa in 3 Std.)
Di, 26.10. 23:00 1027 + 0,6
Di, 26.10. 22:50 1027 keine Meldung
Di, 26.10. 22:40 1027 keine Meldung
Di, 26.10. 22:30 1027 + 0,9
Di, 26.10. 22:20 1027 keine Meldung
Di, 26.10. 22:10 1027 keine Meldung
Di, 26.10. 22:00 1027 + 1,1
Di, 26.10. 21:30 1027 + 1,3
Di, 26.10. 21:00 1027 + 1,5
Di, 26.10. 20:30 1027 + 1,8
Di, 26.10. 20:00 1027 + 1,6
Ortszeit Schneehöhe (cm)
Di, 26.10. 20:00 0
Di, 26.10. 14:00 0
Di, 26.10. 8:00 0
Di, 26.10. 2:00 0
Mo, 25.10. 20:00 0
Mo, 25.10. 14:00 0
Mo, 25.10. 8:00 0
Mo, 25.10. 2:00 0
Ortszeit Schneehöhe (cm)
Di, 26.10. 23:00 0
Di, 26.10. 22:50 0
Di, 26.10. 22:40 0
Di, 26.10. 22:30 0
Di, 26.10. 22:20 0
Di, 26.10. 22:10 0
Di, 26.10. 22:00 0
Di, 26.10. 21:30 0
Di, 26.10. 21:00 0
Di, 26.10. 20:30 0
Di, 26.10. 20:00 0
Link zu dieser Seite / Seite empfehlen

Das Wetter in ...